Location: Sungai Bunut
(2.6333°N, 113.7333°E)
Time: 01:34:56
(UTC+00:00)

S-56A Canister/Altair - Pass Details

Date: 11 December 2023
Orbit: 640 x 2488 km, 38.9° (Epoch: 24 February)

Event Time Altitude Azimuth Distance (km) Brightness Sun altitude
Rises 19:18:20 0° 206° (SSW) 6,157 12.2 -41.9°
Reaches altitude 10° 19:24:26 10° 190° (S) 5,049 11.8 -40.6°
Maximum altitude 19:33:28 19° 150° (SSE) 3,985 11.5 -38.6°
Drops below altitude 10° 19:41:08 10° 110° (ESE) 4,249 12.0 -36.9°
Sets 19:45:31 0° 93° (E) 4,916 12.5 -35.9°
